GFSNGP_700_spd_159.txt.gz
Wind_Speed
12 12 9 12 14 14 13 7 6 11 14 17 14 14 8 14 18 14 15 17 22 26 22 24 28 30 24 19 17 19 18 18 17 15 16 20 20 23 28 29 28 28 33 32
17 16 16 17 16 15 13 11 7 8 7 8 11 14 16 15 16 18 19 20 21 24 25 19 24 29 25 21 16 20 22 22 22 21 15 16 17 19 19 18 20 22 20 24
11 16 19 20 21 21 19 16 12 10 10 8 6 14 16 21 19 17 17 23 23 21 23 24 24 22 21 21 19 22 23 21 23 22 13 17 18 20 19 20 22 24 23 23
10 8 7 10 14 12 14 22 21 18 16 12 10 11 19 23 22 20 22 22 22 17 20 25 31 34 32 25 24 24 24 21 20 20 19 22 23 23 23 23 26 28 28 29
15 15 18 13 8 8 9 14 17 15 15 17 12 12 19 23 23 18 18 12 15 19 23 29 55 47 33 25 24 22 23 23 23 23 24 26 26 26 27 29 31 31 32 33
17 9 5 6 16 13 12 12 7 8 9 9 16 16 17 22 23 18 15 12 16 21 17 5 32 33 23 25 23 23 25 26 26 26 27 27 28 31 33 33 32 33 34 37
19 20 12 21 12 11 10 8 12 14 17 15 11 8 9 16 22 19 15 18 18 16 8 8 17 17 23 23 24 26 28 28 27 29 29 30 31 32 31 31 31 33 36 40
6 12 15 16 21 21 10 8 7 9 8 16 17 13 14 14 18 21 19 19 17 15 10 14 17 22 23 24 25 27 27 27 29 30 30 30 31 29 25 23 24 26 35 37
9 8 5 14 25 19 18 14 13 16 16 14 20 23 17 17 14 17 16 18 16 18 12 20 23 25 26 25 24 26 28 29 29 30 30 26 22 17 16 16 26 35 39 37
16 13 14 18 18 21 27 32 28 21 24 20 14 22 24 18 18 17 16 17 16 15 17 21 25 25 26 27 27 29 31 30 29 24 19 16 14 14 11 14 25 33 39 34
26 19 17 18 20 23 24 26 27 21 27 24 18 22 21 20 16 15 13 14 16 17 21 26 28 29 30 31 31 29 24 19 15 12 11 12 9 10 16 16 21 30 40 46
31 20 19 16 18 22 21 20 25 24 27 24 27 23 21 15 13 11 11 12 18 21 25 25 27 27 26 25 23 18 15 14 10 6 5 6 8 12 15 19 20 29 36 46
19 17 19 23 18 22 22 16 23 26 25 27 24 21 21 24 13 9 12 15 18 17 17 17 18 19 19 18 16 16 16 12 9 6 4 7 10 13 15 16 18 26 32 38
21 24 29 22 20 17 26 25 25 29 29 26 27 22 21 16 13 12 11 11 11 12 13 13 13 14 15 16 20 20 16 13 10 5 6 10 11 13 15 14 17 22 32 39
16 17 19 24 26 18 27 24 26 29 29 32 32 25 25 16 10 9 14 17 16 14 13 13 12 13 14 19 20 18 14 12 10 7 8 11 10 12 13 13 14 17 28 40
21 19 19 22 23 21 22 27 32 29 33 31 31 28 22 12 14 18 19 17 14 13 14 14 13 13 14 17 19 19 17 14 11 11 10 11 10 11 11 10 11 13 14 25
23 20 21 29 27 22 23 25 32 29 34 35 28 28 22 17 19 18 14 14 15 16 16 15 15 14 15 16 18 19 17 15 12 11 11 11 10 11 9 7 7 9 10 11
21 21 23 18 20 20 20 25 28 33 31 35 35 31 22 19 16 16 14 14 16 17 16 16 16 16 16 17 19 19 18 18 15 13 12 11 10 10 8 7 4 5 6 7
18 17 13 9 12 16 18 30 28 25 34 38 37 23 22 18 15 17 16 16 16 17 16 15 16 16 16 17 18 18 20 19 15 14 13 12 10 10 8 7 5 2 2 3
13 9 9 11 11 13 22 26 31 33 40 42 34 29 24 19 16 19 16 15 16 19 18 16 16 16 17 19 20 20 17 16 16 15 14 13 11 9 9 8 7 5 3 1
12 10 10 10 13 12 16 21 30 25 26 36 44 32 29 22 20 15 16 16 18 17 16 16 15 16 17 20 19 17 18 17 15 15 13 9 6 5 7 8 8 8 7 5
9 7 8 8 4 11 17 22 28 31 26 26 33 37 32 25 22 17 17 17 19 16 15 15 15 15 16 16 18 19 18 16 14 15 15 13 9 5 4 3 8 9 8 6
4 2 6 8 8 13 14 14 20 29 31 28 31 31 26 24 20 18 16 17 16 16 15 15 14 13 14 15 17 18 17 15 16 16 15 14 11 11 8 6 5 9 10 9
3 3 3 8 4 4 4 2 10 28 31 20 28 31 23 20 18 17 18 18 16 16 16 15 16 16 15 14 15 15 14 14 15 16 18 14 8 10 13 11 9 8 9 11
1 1 4 6 5 1 12 16 21 18 21 20 19 16 17 16 15 16 18 17 17 18 17 17 18 19 17 17 17 16 15 14 13 14 14 12 12 13 14 14 14 12 11 12
4 6 5 7 7 9 12 11 11 15 11 13 15 15 15 16 15 15 13 13 14 17 18 19 19 19 18 16 16 17 17 18 19 18 17 18 19 20 19 17 16 16 16 17
5 10 14 10 9 6 6 9 7 13 14 17 17 18 17 16 14 12 12 12 14 15 14 13 13 15 16 14 14 14 16 19 22 23 22 21 20 19 19 19 20 20 20 20

GFSNGP_700_spd_162.txt.gz
Wind_Speed
19 20 20 14 14 20 21 19 18 14 13 17 10 11 10 8 10 8 7 10 12 15 19 21 22 24 25 24 23 20 20 23 22 20 10 19 20 21 22 23 21 23 25 24
19 19 21 22 18 17 18 18 16 12 13 13 10 8 9 11 7 10 12 12 15 17 18 24 25 25 26 27 25 23 22 24 23 20 21 18 22 17 16 16 17 20 22 22
9 15 18 23 26 24 24 21 20 19 16 15 9 10 11 13 16 14 12 16 15 18 18 19 26 26 24 33 28 26 25 24 26 27 27 19 20 17 16 18 20 21 22 25
15 15 7 15 15 18 21 22 24 21 17 13 10 10 13 15 16 18 16 15 16 16 17 18 22 25 26 34 34 34 27 28 27 24 20 17 22 19 20 23 26 27 29 32
21 20 22 18 7 8 6 11 11 11 13 15 16 13 14 14 18 20 18 17 17 18 16 16 20 23 28 36 32 34 28 27 24 19 21 20 20 19 24 26 29 32 35 37
18 10 9 23 28 23 19 18 12 17 10 10 12 16 14 14 21 25 22 20 18 15 15 19 23 32 39 33 34 32 25 21 21 22 21 18 21 25 28 30 32 34 36 38
19 17 16 16 14 18 15 15 19 18 16 13 9 10 15 15 18 19 21 21 19 15 14 17 15 10 22 40 28 24 23 21 19 18 19 22 24 28 30 32 33 31 27 27
12 11 10 18 27 27 21 15 19 13 12 11 12 15 15 15 15 16 21 19 17 15 14 12 14 11 2 25 13 15 18 16 18 19 21 24 28 29 30 30 26 21 21 25
14 9 8 12 15 23 29 29 22 16 11 10 14 17 16 15 18 20 20 16 17 14 14 12 15 17 18 16 16 14 15 16 19 22 25 28 29 27 26 23 21 23 25 32
19 18 20 21 19 20 22 24 28 24 19 16 17 19 26 21 20 23 21 17 15 16 15 13 12 16 13 14 17 18 21 21 23 25 28 27 23 20 19 20 21 26 30 37
26 24 22 21 22 23 24 27 28 28 32 30 23 21 23 31 26 26 25 19 15 14 14 14 16 16 18 19 20 21 21 23 26 26 21 16 15 15 12 16 21 26 30 38
35 25 26 25 24 23 24 29 26 27 28 24 29 25 22 27 27 24 22 18 15 14 18 18 17 18 20 23 23 24 25 24 18 13 12 11 9 7 10 15 16 20 28 36
25 20 22 23 23 22 22 21 23 27 30 29 25 20 18 20 22 20 18 18 17 17 20 18 19 21 21 21 22 20 17 13 13 11 10 7 6 9 12 12 10 18 28 37
19 22 23 21 22 20 22 19 21 23 22 24 23 22 28 24 17 15 12 11 11 13 15 13 14 14 14 16 17 15 15 16 14 12 8 5 7 9 9 9 8 16 32 39
14 19 20 20 23 23 22 20 19 26 24 23 23 25 22 16 18 12 8 8 8 8 10 11 13 11 11 13 14 15 16 16 15 12 8 5 8 8 8 7 6 5 14 22
15 19 21 24 21 18 19 20 20 26 26 23 24 28 24 25 20 16 10 8 7 8 10 12 12 11 11 12 15 18 19 19 17 14 11 8 9 8 8 7 6 5 5 12
25 23 24 25 24 22 24 22 19 23 26 24 24 29 29 23 17 17 12 10 11 12 11 12 12 12 12 13 16 19 21 19 16 14 11 10 10 9 8 7 5 6 6 7
20 18 19 21 20 22 19 17 20 24 31 22 24 18 22 24 20 17 14 13 13 11 10 12 13 13 13 14 17 19 21 20 18 16 14 14 12 10 7 7 6 4 5 5
18 17 14 17 18 14 13 15 18 27 34 23 25 24 20 21 22 20 14 13 13 11 12 12 13 13 15 17 19 21 22 21 20 18 18 16 13 11 10 9 7 5 4 4
7 9 8 9 10 9 11 14 19 25 27 28 26 30 26 28 23 19 17 15 14 15 13 13 13 15 17 20 21 22 22 21 19 18 18 16 14 13 12 10 8 7 6 5
9 7 7 9 8 9 12 13 14 22 23 29 33 34 36 32 24 22 17 15 14 13 12 11 13 15 18 19 19 23 21 20 19 19 18 16 15 13 11 10 8 8 9 9
7 4 5 4 0 4 7 9 13 16 20 25 36 36 31 25 26 24 21 14 15 15 12 12 13 15 16 18 19 21 23 19 19 20 17 15 13 13 11 10 10 10 10 10
2 3 3 3 3 2 1 12 21 23 25 24 26 28 26 27 25 24 18 15 14 15 13 15 15 15 16 16 16 19 21 21 17 16 15 14 14 16 16 13 10 10 12 11
2 2 2 3 1 5 5 5 13 25 29 29 26 20 23 30 30 24 22 17 17 17 14 16 16 15 14 15 17 20 22 18 15 15 15 16 18 18 17 13 11 12 12 12
4 4 3 5 3 6 4 10 4 22 31 28 30 28 28 26 24 23 21 19 18 16 15 15 15 15 14 15 16 18 19 18 18 17 18 19 18 21 21 17 13 13 14 15
5 9 7 8 8 11 8 8 13 15 16 20 23 24 25 24 19 22 23 20 15 13 16 16 15 14 15 15 15 16 17 18 19 20 20 20 20 21 22 20 19 18 18 18
6 11 8 6 10 11 10 6 9 9 10 12 18 19 20 19 16 15 14 13 14 15 15 15 16 15 14 15 16 17 17 17 19 20 20 20 20 19 20 21 22 22 23 24

GFSNGP_700_spd_165.txt.gz
Wind_Speed
22 22 23 24 20 19 22 23 20 20 20 16 13 13 8 11 7 8 9 13 13 14 15 19 23 22 24 26 26 28 28 25 21 24 22 25 22 23 23 21 19 21 23 24
18 20 26 28 26 21 21 20 21 21 20 17 16 15 13 11 10 8 10 10 11 14 16 18 21 22 22 25 28 31 32 30 28 29 28 26 21 27 21 17 16 17 19 21
17 14 22 26 23 25 24 24 23 22 23 19 17 15 13 14 12 12 13 14 14 13 14 13 18 22 21 23 29 30 29 28 26 28 29 29 23 20 17 17 18 18 19 21
15 12 17 20 18 19 22 24 28 27 20 17 17 17 15 16 17 17 19 15 15 18 17 15 16 20 22 25 25 36 32 30 26 23 28 25 20 23 24 21 21 20 22 25
19 21 23 20 14 14 9 15 17 27 29 29 24 18 15 18 20 20 17 19 19 20 20 17 15 16 17 19 25 33 38 31 29 26 26 24 24 21 24 20 23 23 27 29
19 18 17 22 20 30 26 25 21 17 25 27 23 22 21 19 18 18 21 23 23 23 20 15 17 20 21 23 21 28 28 29 34 30 25 23 23 24 22 25 26 28 30 33
26 22 19 17 14 20 18 16 19 19 22 22 24 22 20 20 22 23 22 24 22 22 18 16 18 21 23 22 25 31 38 30 34 28 23 23 21 20 23 25 27 30 32 34
15 16 17 16 21 24 18 18 21 19 24 21 22 25 25 25 25 24 23 23 22 18 17 17 17 18 16 17 17 38 26 33 13 19 19 20 21 21 24 25 28 30 30 30
15 12 14 16 21 23 25 26 26 22 20 22 24 24 26 27 26 24 24 24 21 18 18 16 15 13 13 5 2 14 13 18 14 16 20 19 20 22 24 26 25 24 25 27
22 20 23 24 22 22 20 25 26 31 28 23 19 18 20 16 17 15 25 25 23 19 17 14 13 11 9 8 8 8 4 9 10 14 17 19 21 21 20 18 18 19 22 25
24 25 24 23 25 26 26 26 25 25 27 31 30 21 19 19 15 18 20 23 23 17 15 15 15 12 12 11 9 11 11 10 12 14 17 19 16 14 14 11 11 15 21 24
29 28 31 32 28 28 30 27 28 27 24 23 29 32 29 28 25 21 22 24 24 20 18 18 15 13 14 14 13 12 13 16 17 17 14 11 10 11 7 6 9 9 16 24
28 24 26 28 29 26 29 31 30 29 25 26 26 29 34 31 32 26 30 25 23 21 19 18 18 16 16 14 15 15 16 14 12 11 11 10 10 7 6 6 2 9 18 28
20 22 29 26 24 21 23 27 28 28 26 29 28 28 28 22 21 24 26 24 20 22 21 19 17 15 15 13 13 13 12 11 13 13 13 10 5 5 6 4 3 2 10 16
10 15 19 17 22 21 22 23 24 23 23 25 27 22 22 20 26 22 23 22 23 19 15 14 14 14 13 12 12 12 11 14 15 15 12 9 5 4 5 4 4 7 8 11
20 19 19 18 19 20 19 20 23 24 22 23 24 20 20 19 27 31 19 15 15 11 12 13 14 15 13 11 11 12 15 18 16 15 13 10 7 6 7 7 6 6 7 10
18 16 22 23 22 22 23 22 23 23 22 23 23 21 26 23 9 36 22 12 12 13 13 14 15 14 13 11 11 13 16 18 17 16 15 13 10 9 9 8 8 7 6 7
24 21 18 18 18 22 22 22 23 23 23 22 25 22 26 25 18 24 24 24 21 15 14 15 14 13 13 13 14 15 18 20 19 18 17 14 11 10 10 10 9 8 7 6
16 15 16 17 16 17 20 25 23 21 23 23 25 22 25 25 22 25 26 26 21 15 15 15 16 16 15 14 16 18 19 21 21 20 18 17 14 12 11 11 10 10 8 7
9 9 8 9 12 11 10 13 15 20 24 26 26 23 22 23 26 23 20 16 14 14 14 14 14 15 16 16 16 18 20 21 22 21 19 19 17 14 13 12 11 11 10 9
10 8 9 10 10 11 10 9 11 16 24 27 29 29 27 27 24 21 15 12 11 12 13 11 13 15 16 17 18 19 20 22 20 20 17 18 15 13 14 13 13 12 12 12
12 8 9 10 5 5 6 9 10 16 23 24 30 27 30 27 24 20 18 15 15 12 12 12 15 16 15 16 17 17 18 19 21 19 20 18 16 14 13 12 12 13 14 13
3 5 6 7 7 3 5 8 13 17 23 20 23 27 29 26 20 21 18 16 16 13 11 13 13 15 16 16 16 16 17 20 21 22 18 20 17 16 15 14 14 13 12 14
3 3 4 7 5 4 5 9 10 17 21 24 22 26 29 23 23 21 23 24 18 12 13 14 12 13 13 14 14 16 18 20 21 20 21 19 18 17 16 15 15 15 15 14
4 5 6 4 1 3 3 6 4 15 21 26 24 25 26 24 24 25 23 19 19 16 14 14 12 12 11 12 12 14 16 19 20 19 17 18 17 18 18 18 18 19 19 18
11 9 8 9 9 15 14 13 8 9 13 23 25 22 23 26 25 26 25 24 21 16 15 13 11 12 11 11 11 13 15 18 20 20 19 20 20 20 21 21 22 23 24 24
15 11 6 12 12 11 12 12 15 7 11 21 26 24 23 24 21 19 19 17 14 13 13 13 13 12 12 13 15 16 16 18 20 21 22 23 22 21 21 20 21 22 23 23

GFSNGP_700_spd_168.txt.gz
Wind_Speed
22 25 22 21 21 20 20 21 26 29 25 22 18 15 12 14 9 9 10 13 16 15 23 29 30 28 27 28 30 31 31 29 28 25 25 25 24 22 21 21 21 19 21 21
23 23 25 29 28 27 25 25 25 24 28 24 19 16 16 13 14 10 11 15 15 15 17 22 26 28 29 28 28 29 30 31 32 30 28 27 28 25 24 25 25 24 24 25
24 21 22 30 25 28 31 29 26 26 22 18 19 15 17 16 15 14 11 17 18 17 16 18 21 26 29 28 30 33 33 35 37 35 32 30 29 28 32 25 24 24 25 23
26 23 23 26 23 20 20 23 27 28 25 20 18 19 20 22 18 18 16 16 19 16 15 16 18 20 24 29 27 29 36 36 37 37 35 34 28 31 29 23 24 26 26 24
28 28 27 21 12 15 17 22 16 18 20 22 26 20 18 24 22 21 20 18 19 18 17 16 17 19 20 24 22 24 28 34 34 37 31 30 30 31 27 27 26 25 24 25
28 26 23 25 24 25 25 32 20 21 21 24 28 25 19 24 23 23 20 15 16 20 16 18 17 18 19 21 22 23 25 32 41 40 35 31 31 29 29 27 21 23 25 29
32 33 35 27 19 17 20 20 20 21 25 22 25 27 30 26 28 25 23 20 18 19 22 20 18 18 17 20 24 25 27 29 31 41 38 37 28 25 24 22 22 24 28 31
27 30 31 20 17 23 16 15 20 19 21 21 21 22 29 29 27 25 24 26 28 29 23 20 18 16 15 18 22 22 25 29 31 30 30 43 22 22 21 21 23 25 28 31
24 21 15 17 19 24 28 32 26 23 20 19 19 20 22 24 22 25 26 29 30 26 22 20 17 15 15 18 18 17 16 22 34 29 24 26 19 17 20 20 23 26 26 24
23 24 25 20 19 17 22 23 26 25 31 28 24 20 20 20 17 22 28 29 31 26 22 19 16 13 15 15 12 8 9 5 29 34 29 23 16 17 19 21 21 17 15 18
25 27 26 21 19 18 20 28 29 27 23 25 30 32 25 22 17 17 15 19 20 26 22 18 14 12 14 13 9 6 5 2 1 13 19 12 15 18 18 16 11 8 7 10
31 23 23 24 26 28 33 33 34 33 29 26 24 27 31 30 26 19 16 12 18 26 23 18 15 13 14 12 10 10 10 10 11 11 13 16 17 14 12 10 8 5 5 9
30 28 28 29 30 33 33 34 34 34 34 30 26 23 23 28 31 28 22 17 19 24 21 19 17 16 16 14 13 13 13 14 15 15 15 14 14 13 11 10 9 11 7 11
27 25 28 27 30 30 30 31 32 34 34 29 28 26 24 24 34 30 28 20 23 27 23 22 19 18 19 17 16 16 16 15 14 14 15 15 13 11 10 10 11 15 13 13
11 15 18 20 22 25 26 28 27 28 29 27 26 26 23 22 23 27 26 23 25 27 25 23 21 20 19 19 17 15 14 14 13 16 17 15 12 9 8 9 10 11 14 15
21 23 21 22 19 18 18 22 22 21 21 23 25 24 24 23 22 26 24 26 28 29 24 21 19 19 18 17 16 13 13 15 17 17 17 16 12 9 7 7 8 9 10 9
20 17 17 17 18 18 19 19 20 20 20 21 23 22 22 21 23 23 31 28 24 20 16 16 17 18 17 17 15 13 15 18 21 20 19 17 14 10 9 9 9 9 9 9
18 22 23 23 21 20 21 23 24 23 21 20 21 22 24 20 27 33 31 31 25 18 17 17 18 19 18 16 15 16 17 20 22 21 19 17 15 13 11 11 11 10 10 9
19 17 17 17 20 22 22 22 21 21 20 20 21 24 24 21 31 35 37 37 34 22 13 15 18 19 17 17 17 17 18 22 25 24 21 20 18 16 14 12 11 11 11 11
11 13 13 13 15 17 16 17 18 20 20 20 22 26 24 21 28 23 28 43 29 22 17 18 20 18 19 18 18 18 19 22 24 24 23 21 20 18 18 14 13 13 12 13
14 14 13 12 13 12 12 16 14 14 15 19 24 25 22 22 25 34 40 25 23 22 21 18 18 19 19 19 18 18 20 23 25 25 24 22 21 21 17 14 14 15 15 14
13 12 11 11 12 13 13 11 11 11 12 19 24 24 20 24 15 26 25 21 18 16 17 16 15 16 16 17 19 20 20 22 24 24 25 24 21 18 16 15 15 14 14 15
7 7 6 5 7 6 6 7 9 8 12 19 25 24 22 25 25 26 22 17 14 13 12 11 10 13 16 17 18 18 18 20 22 24 23 23 20 19 18 17 14 13 14 14
2 3 1 6 6 3 4 4 9 13 15 21 24 25 25 24 24 22 22 17 15 13 11 9 9 12 15 14 15 18 19 20 21 22 21 21 20 19 19 18 16 15 14 14
2 3 4 3 2 1 2 5 7 15 21 26 24 25 26 26 26 25 20 20 18 15 14 12 10 12 13 14 17 18 19 20 19 22 23 21 20 20 19 18 17 13 14 14
6 7 6 6 11 10 10 9 7 8 20 22 23 22 26 28 27 26 26 21 17 17 16 13 12 13 15 17 17 16 16 17 20 20 21 21 19 18 19 19 18 19 19 19
16 8 12 12 9 9 13 16 13 9 15 20 20 19 24 26 29 28 24 22 22 19 17 15 17 19 18 17 16 15 15 16 18 20 22 22 21 21 21 21 20 20 20 21

GFSNGP_700_spd_171.txt.gz
Wind_Speed
27 27 27 22 18 19 18 20 21 25 25 19 14 12 12 10 9 9 10 11 16 19 19 25 28 25 26 27 28 28 28 26 24 23 23 22 20 19 18 18 19 20 20 20
30 27 27 29 28 28 28 29 30 29 27 23 23 17 13 12 12 8 8 10 16 19 19 23 26 24 25 26 27 29 30 30 30 28 28 25 25 25 25 24 23 23 24 24
31 29 30 35 32 31 32 31 30 33 29 24 22 19 19 14 11 10 9 10 16 19 19 20 25 27 28 29 28 30 29 29 33 33 34 32 30 29 29 27 27 26 23 28
31 29 23 31 27 26 27 27 27 26 29 27 22 16 10 11 17 17 16 12 14 19 20 20 22 25 30 33 34 32 31 32 34 34 35 35 34 33 30 29 32 26 28 27
31 32 35 31 22 22 25 27 23 21 26 20 16 13 17 20 23 22 21 17 13 16 20 21 21 22 24 26 31 32 30 31 35 40 39 39 38 36 35 31 32 30 28 29
30 31 27 28 20 16 17 26 23 23 17 16 16 15 14 21 25 23 24 18 14 15 19 19 19 20 21 22 22 26 28 27 30 36 41 42 39 34 40 36 33 32 26 26
35 36 37 32 26 20 18 23 15 8 10 11 12 18 25 17 24 22 24 21 15 15 15 17 16 18 21 22 21 21 22 24 24 29 36 40 41 39 34 34 33 27 26 28
25 33 36 27 27 30 20 13 7 6 9 11 18 20 19 21 23 23 27 28 21 16 15 15 19 20 21 20 18 18 22 26 27 29 30 33 41 45 33 31 28 25 24 26
28 25 19 12 13 18 16 15 11 11 10 11 11 13 14 13 14 19 29 24 22 20 15 16 20 21 21 19 17 18 20 21 24 28 32 39 45 40 35 32 27 23 24 25
22 28 25 22 17 17 12 15 15 14 15 15 16 19 16 13 11 10 16 21 19 20 20 19 22 24 21 18 16 15 14 15 12 17 26 34 35 34 37 36 22 19 21 20
27 28 29 28 24 17 16 21 24 25 21 20 21 22 27 26 21 13 9 11 17 21 20 21 25 24 20 17 14 12 12 12 7 12 12 23 26 27 26 22 18 17 14 13
33 25 25 28 26 22 24 26 23 27 28 22 24 22 27 26 28 23 18 12 13 16 20 26 27 24 20 15 12 11 13 12 12 9 3 7 3 9 18 14 15 15 14 14
29 28 30 30 27 27 28 28 28 27 27 26 24 22 22 26 26 33 21 20 15 12 21 29 27 24 19 14 12 12 14 13 12 11 11 11 12 13 15 16 16 16 17 17
26 28 29 26 29 28 28 28 29 29 27 26 26 25 24 27 25 23 33 23 17 17 21 29 28 24 19 15 14 13 14 14 15 16 16 16 15 16 15 14 15 16 17 18
19 20 23 23 25 23 22 25 27 27 25 26 23 22 23 25 27 26 26 26 23 23 23 31 33 30 23 18 17 16 16 17 16 16 16 16 16 14 13 14 14 14 16 18
18 16 18 22 25 22 23 21 21 22 23 20 20 22 24 24 26 23 24 27 29 28 26 33 34 37 24 19 19 19 18 17 17 17 16 17 16 14 12 11 11 12 13 12
35 35 30 23 21 19 21 21 21 19 21 22 22 22 25 25 21 21 22 25 25 26 27 32 34 24 22 21 19 19 17 17 17 18 19 20 18 16 13 11 10 10 12 10
31 29 25 22 24 24 23 22 22 25 26 26 24 24 27 24 21 21 23 22 26 25 31 33 26 20 20 18 19 19 16 16 16 19 21 21 20 17 14 12 10 10 12 10
23 24 22 25 23 22 24 24 25 27 25 25 26 25 25 22 21 23 25 25 26 34 34 28 25 19 20 19 19 17 18 16 16 20 21 21 20 18 16 13 12 12 12 15
12 15 17 18 17 19 19 19 21 23 22 23 24 24 23 24 25 25 28 34 30 31 27 22 18 18 20 21 17 18 20 18 17 22 24 23 21 20 18 16 15 15 15 15
14 16 17 17 17 16 16 17 18 17 18 20 24 25 25 23 27 27 36 34 38 35 31 26 22 20 21 19 20 21 22 20 20 22 25 23 22 20 18 18 18 18 18 17
14 15 14 14 13 12 11 14 17 15 15 17 19 20 21 26 25 26 33 34 32 29 28 29 25 26 22 19 20 21 20 20 22 24 25 23 22 21 21 20 18 16 16 16
10 9 7 6 4 7 9 8 10 10 11 13 16 19 23 24 22 27 25 32 35 37 29 29 26 24 21 21 21 20 18 19 21 23 23 21 21 23 21 19 18 16 16 16
6 6 4 6 3 5 4 5 8 9 10 12 16 19 18 21 20 24 16 50 30 26 23 23 20 19 18 16 15 16 17 18 20 20 20 22 23 23 22 21 21 18 15 15
2 3 1 3 4 6 6 9 12 14 14 15 17 19 14 15 21 21 17 21 20 22 20 14 15 14 14 13 13 14 17 20 19 19 20 21 22 23 21 21 17 15 13 13
7 4 3 6 11 11 11 9 6 3 13 15 17 16 13 16 17 16 19 23 19 19 18 16 14 14 13 12 14 15 17 18 18 19 21 22 24 24 21 16 14 19 18 18
15 10 9 6 7 14 13 15 11 15 14 14 14 12 13 15 18 19 20 24 22 18 19 19 17 16 14 10 15 15 15 15 15 16 19 21 22 23 21 21 22 23 23 23